TimeCST,TemperatureF,Dew PointF,Humidity,Sea Level PressureIn,VisibilityMPH,Wind Direction,Wind SpeedMPH,Gust SpeedMPH,PrecipitationIn,Events,Conditions,WindDirDegrees,DateUTC
12:52 AM,52.0,50.0,93,29.89,2.5,NW,4.6,-,0.08,Rain,Heavy Rain,310,2013-02-08 06:52:00
1:07 AM,51.8,50.0,94,29.90,3.0,Calm,Calm,-,0.06,Rain,Rain,0,2013-02-08 07:07:00
1:37 AM,51.8,50.0,94,29.91,6.0,NW,5.8,-,0.08,Rain,Light Rain,310,2013-02-08 07:37:00
1:49 AM,51.8,50.0,94,29.91,5.0,WNW,6.9,-,0.09,Rain,Light Rain,300,2013-02-08 07:49:00
1:52 AM,52.0,50.0,93,29.91,5.0,WNW,10.4,19.6,0.09,Rain,Light Rain,290,2013-02-08 07:52:00
2:37 AM,48.2,44.6,87,29.94,10.0,NNW,17.3,-,0.02,,Overcast,340,2013-02-08 08:37:00
2:52 AM,48.0,45.0,89,29.94,10.0,NNW,17.3,-,0.02,Rain,Light Rain,340,2013-02-08 08:52:00
3:06 AM,48.2,44.6,87,29.94,9.0,NNW,16.1,-,0.00,Rain,Light Rain,340,2013-02-08 09:06:00
3:13 AM,46.4,44.6,93,29.94,5.0,NNW,17.3,-,0.01,Rain,Light Rain,340,2013-02-08 09:13:00
3:34 AM,46.4,42.8,87,29.96,10.0,North,19.6,25.3,0.02,Rain,Light Rain,350,2013-02-08 09:34:00
3:52 AM,45.0,42.1,90,29.97,10.0,NNW,16.1,27.6,0.02,,Overcast,340,2013-02-08 09:52:00
4:16 AM,44.6,42.8,93,29.99,10.0,NNW,21.9,25.3,N/A,,Overcast,340,2013-02-08 10:16:00
4:52 AM,44.1,39.9,85,30.01,8.0,North,13.8,24.2,N/A,,Overcast,350,2013-02-08 10:52:00
5:52 AM,42.1,37.9,85,30.05,10.0,North,17.3,-,N/A,,Overcast,350,2013-02-08 11:52:00
6:08 AM,42.8,37.4,81,30.06,10.0,North,17.3,-,N/A,,Overcast,360,2013-02-08 12:08:00
6:37 AM,41.0,37.4,87,30.08,10.0,North,15.0,-,N/A,,Overcast,350,2013-02-08 12:37:00
6:52 AM,41.0,36.0,82,30.09,10.0,North,16.1,23.0,N/A,,Overcast,350,2013-02-08 12:52:00
7:06 AM,41.0,35.6,81,30.10,10.0,North,16.1,23.0,N/A,,Overcast,350,2013-02-08 13:06:00
7:31 AM,41.0,35.6,81,30.11,9.0,NNW,17.3,-,N/A,,Overcast,340,2013-02-08 13:31:00
7:52 AM,39.9,36.0,86,30.13,10.0,NNW,15.0,-,N/A,,Overcast,340,2013-02-08 13:52:00
8:19 AM,39.2,35.6,87,30.15,10.0,NNW,17.3,24.2,N/A,,Overcast,340,2013-02-08 14:19:00
8:52 AM,39.9,35.1,83,30.17,10.0,NNW,15.0,-,N/A,,Overcast,340,2013-02-08 14:52:00
9:52 AM,39.9,33.1,77,30.20,10.0,North,19.6,-,N/A,,Overcast,350,2013-02-08 15:52:00
10:52 AM,39.9,32.0,73,30.22,10.0,North,17.3,23.0,N/A,,Overcast,360,2013-02-08 16:52:00
11:52 AM,39.0,30.9,73,30.24,10.0,North,18.4,-,N/A,,Overcast,350,2013-02-08 17:52:00
12:52 PM,41.0,32.0,70,30.24,10.0,North,16.1,23.0,N/A,,Overcast,360,2013-02-08 18:52:00
1:52 PM,42.1,32.0,67,30.23,10.0,North,16.1,20.7,N/A,,Mostly Cloudy,360,2013-02-08 19:52:00
2:52 PM,41.0,30.9,67,30.25,10.0,North,13.8,-,N/A,,Mostly Cloudy,10,2013-02-08 20:52:00
3:52 PM,39.9,30.9,70,30.26,10.0,North,10.4,-,N/A,,Overcast,360,2013-02-08 21:52:00
4:52 PM,39.0,30.9,73,30.29,10.0,North,13.8,-,N/A,,Overcast,350,2013-02-08 22:52:00
5:52 PM,37.0,28.9,73,30.31,10.0,North,13.8,-,N/A,,Overcast,360,2013-02-08 23:52:00
6:52 PM,36.0,28.0,73,30.35,10.0,North,10.4,-,N/A,,Overcast,360,2013-02-09 00:52:00
7:52 PM,35.1,27.0,72,30.34,10.0,NNE,9.2,-,N/A,,Overcast,20,2013-02-09 01:52:00
8:52 PM,35.1,28.0,76,30.33,10.0,ENE,6.9,-,N/A,,Overcast,60,2013-02-09 02:52:00
9:52 PM,35.1,28.0,76,30.35,10.0,NE,9.2,-,N/A,,Overcast,50,2013-02-09 03:52:00
10:52 PM,35.1,27.0,72,30.35,10.0,NE,10.4,-,N/A,,Overcast,40,2013-02-09 04:52:00
11:52 PM,34.0,27.0,75,30.36,10.0,ENE,8.1,-,N/A,,Overcast,70,2013-02-09 05:52:00